Tracking 27422 objects as of 31-May-2023
HD Live streaming from Space Station
objects crossing your sky now

USA 105

Track USA 105 now!
USA 105 is classified as:


NORAD ID: 23223
Int'l Code: 1994-054A
Perigee: 35,648.8 km
Apogee: 35,939.7 km
Inclination: 12.5 °
Period: 1,436.1 minutes
Semi major axis: 42165 km
RCS: Unknown
Launch date: August 27, 1994
Source: United States (US)
Launch site: AIR FORCE EASTERN TEST RANGE (AFETR)

In the $1 billion range; ELINT; signals intelligence.
Your satellite tracking list
Your tracking list is empty




NASA's NSSDC Master Catalog

Two Line Element Set (TLE):
1 23223U 94054A   22262.94243646 0.00000000  00000-0  00000-0 0    09
2 23223  12.5259  19.9087 0034490 106.6325 253.7643  1.00270000    05
Source of the keplerian elements: McCants